W0WC Weather Reports


time (UTC)temp
C
wind
direction
speed
KPH
gust
KPH
rain 1hr
cm
rain 24hr
cm
rain mn
cm
humidity
%
barometer
mb
20260903200305 37 102 4.8 9.7 0.00 0.00 0.00 36 1013.3
20260903195800 37 176 6.4 9.7 0.00 0.00 0.00 36 1013.3
20260903195256 37 181 8.0 11.3 0.00 0.00 0.00 36 1013.5
20260903194751 37 231 6.4 6.4 0.00 0.00 0.00 36 1013.4
20260903194247 36 106 8.0 11.3 0.00 0.00 0.00 35 1013.5
20260903193743 37 111 8.0 14.5 0.00 0.00 0.00 37 1013.5
20260903193238 37 194 4.8 6.4 0.00 0.00 0.00 36 1013.8
20260903192734 36 209 3.2 4.8 0.00 0.00 0.00 38 1013.8
20260903192229 36 179 14.5 16.1 0.00 0.00 0.00 37 1013.9
20260903191726 37 171 11.3 14.5 0.00 0.00 0.00 37 1013.9
20260903191221 36 228 9.7 11.3 0.00 0.00 0.00 38 1014.0
20260903190715 36 139 9.7 16.1 0.00 0.00 0.00 38 1014.1
20260903190215 36 180 9.7 12.9 0.00 0.00 0.00 38 1014.0
20260903185709 36 111 9.7 12.9 0.00 0.00 0.00 37 1014.4
20260903185204 36 33 1.6 1.6 0.00 0.00 0.00 38 1014.1
20260903184701 36 200 14.5 20.9 0.00 0.00 0.00 37 1014.4
20260903184157 36 174 9.7 14.5 0.00 0.00 0.00 39 1014.1
20260903183656 36 207 12.9 16.1 0.00 0.00 0.00 39 1014.5
20260903183151 35 245 9.7 12.9 0.00 0.00 0.00 40 1014.8
20260903182650 35 189 9.7 14.5 0.00 0.00 0.00 40 1014.7
20260903182146 35 201 11.3 16.1 0.00 0.00 0.00 40 1014.7
20260903181644 35 209 4.8 6.4 0.00 0.00 0.00 41 1014.8
20260903181138 35 172 6.4 9.7 0.00 0.00 0.00 41 1014.7
20260903180634 36 174 6.4 9.7 0.00 0.00 0.00 41 1014.9
20260903180128 35 237 8.0 14.5 0.00 0.00 0.00 41 1014.9
20260903175627 35 115 3.2 6.4 0.00 0.00 0.00 41 1015.0
20260903175126 35 116 8.0 9.7 0.00 0.00 0.00 41 1015.1
20260903174621 35 203 6.4 9.7 0.00 0.00 0.00 42 1015.3
20260903174116 35 224 9.7 16.1 0.00 0.00 0.00 42 1015.4
20260903173611 35 336 6.4 9.7 0.00 0.00 0.00 42 1015.5
20260903173108 35 283 3.2 4.8 0.00 0.00 0.00 42 1015.6
20260903172603 35 196 8.0 12.9 0.00 0.00 0.00 42 1015.6
20260903172058 35 90 3.2 4.8 0.00 0.00 0.00 43 1015.7
20260903171558 35 240 6.4 11.3 0.00 0.00 0.00 42 1015.6
20260903171054 34 68 1.6 3.2 0.00 0.00 0.00 44 1015.8
20260903170552 33 204 4.8 4.8 0.00 0.00 0.00 45 1015.7
20260903170048 34 352 8.0 12.9 0.00 0.00 0.00 45 1015.8
20260903165545 34 202 3.2 6.4 0.00 0.00 0.00 44 1016.0
20260903165040 33 172 9.7 12.9 0.00 0.00 0.00 45 1015.9
20260903164535 33 215 3.2 6.4 0.00 0.00 0.00 46 1015.9
20260903164031 33 120 8.0 9.7 0.00 0.00 0.00 46 1016.2
20260903163526 33 152 8.0 11.3 0.00 0.00 0.00 46 1015.9
20260903163022 33 202 8.0 9.7 0.00 0.00 0.00 46 1016.2
20260903162518 33 189 6.4 11.3 0.00 0.00 0.00 46 1016.1
20260903162013 32 198 11.3 14.5 0.00 0.00 0.00 47 1016.0
20260903161509 32 168 8.0 11.3 0.00 0.00 0.00 47 1016.0
20260903161005 32 162 9.7 11.3 0.00 0.00 0.00 47 1016.0
20260903160503 32 157 11.3 14.5 0.00 0.00 0.00 47 1016.1
20260903160003 32 272 9.7 12.9 0.00 0.00 0.00 48 1016.1
20260903155502 32 185 6.4 11.3 0.00 0.00 0.00 48 1016.2
20260903154958 31 234 6.4 6.4 0.00 0.00 0.00 51 1016.5
20260903154454 31 213 8.0 11.3 0.00 0.00 0.00 50 1016.2
20260903153949 32 189 16.1 16.1 0.00 0.00 0.00 49 1016.3
20260903153445 31 178 11.3 14.5 0.00 0.00 0.00 50 1016.3
20260903152941 31 162 11.3 16.1 0.00 0.00 0.00 50 1016.1
20260903152437 31 350 4.8 4.8 0.00 0.00 0.00 51 1016.3
20260903151933 31 185 9.7 11.3 0.00 0.00 0.00 51 1016.5
20260903151427 31 210 6.4 11.3 0.00 0.00 0.00 52 1016.2
20260903150922 31 210 9.7 11.3 0.00 0.00 0.00 52 1016.3
20260903150417 31 193 8.0 11.3 0.00 0.00 0.00 52 1016.2
20260903145917 31 194 6.4 9.7 0.00 0.00 0.00 52 1016.3
20260903145412 30 34 3.2 4.8 0.00 0.00 0.00 54 1016.4
20260903144912 30 195 11.3 16.1 0.00 0.00 0.00 53 1016.4
20260903144407 30 186 6.4 9.7 0.00 0.00 0.00 54 1016.4
20260903143902 30 147 16.1 20.9 0.00 0.00 0.00 55 1016.6
20260903143359 30 206 8.0 11.3 0.00 0.00 0.00 56 1016.1
20260903142859 30 157 9.7 14.5 0.00 0.00 0.00 57 1016.4
20260903142355 30 208 8.0 9.7 0.00 0.00 0.00 58 1016.5
20260903141851 30 178 8.0 12.9 0.00 0.00 0.00 58 1016.7
20260903141346 29 253 6.4 9.7 0.00 0.00 0.00 58 1016.5
20260903140841 29 142 11.3 14.5 0.00 0.00 0.00 59 1016.5
20260903140336 29 209 9.7 12.9 0.00 0.00 0.00 59 1016.5
20260903135832 28 238 6.4 6.4 0.00 0.00 0.00 60 1016.6
20260903135328 28 162 4.8 4.8 0.00 0.00 0.00 61 1016.6
20260903134826 28 325 6.4 11.3 0.00 0.00 0.00 61 1016.5
20260903134322 28 183 11.3 14.5 0.00 0.00 0.00 61 1016.5
20260903133820 28 198 11.3 12.9 0.00 0.00 0.00 62 1016.8
20260903133316 28 169 4.8 6.4 0.00 0.00 0.00 63 1016.8
20260903132816 27 213 6.4 9.7 0.00 0.00 0.00 64 1016.5
20260903132312 27 77 6.4 9.7 0.00 0.00 0.00 65 1016.6
20260903131806 27 201 4.8 6.4 0.00 0.00 0.00 65 1016.5
20260903131306 27 201 4.8 6.4 0.00 0.00 0.00 65 1016.4
20260903130800 27 60 3.2 4.8 0.00 0.00 0.00 66 1016.4
20260903130255 27 184 4.8 9.7 0.00 0.00 0.00 67 1016.7
20260903125753 27 194 8.0 9.7 0.00 0.00 0.00 67 1016.6
20260903125249 26 150 11.3 14.5 0.00 0.00 0.00 67 1016.7
20260903124748 26 61 6.4 4.8 0.00 0.00 0.00 67 1016.3
20260903124244 26 166 6.4 11.3 0.00 0.00 0.00 67 1016.4
20260903123742 26 62 3.2 3.2 0.00 0.00 0.00 68 1016.4
20260903123242 26 176 8.0 12.9 0.00 0.00 0.00 68 1016.4
20260903122741 26 248 3.2 4.8 0.00 0.00 0.00 68 1016.4
20260903122236 26 62 1.6 3.2 0.00 0.00 0.00 68 1016.2
20260903121734 26 71 3.2 4.8 0.00 0.00 0.00 69 1016.1
20260903121230 26 179 6.4 6.4 0.00 0.00 0.00 69 1016.2
20260903120730 26 54 3.2 3.2 0.00 0.00 0.00 69 1016.2
20260903120224 26 184 6.4 9.7 0.00 0.00 0.00 69 1016.1
20260903115723 26 148 3.2 4.8 0.00 0.00 0.00 68 1016.1
20260903115219 26 185 3.2 3.2 0.00 0.00 0.00 68 1016.0
20260903114713 26 94 3.2 4.8 0.00 0.00 0.00 68 1016.0
20260903114209 26 207 8.0 9.7 0.00 0.00 0.00 68 1015.9
20260903113708 26 210 3.2 4.8 0.00 0.00 0.00 67 1016.0
20260903113205 26 188 4.8 4.8 0.00 0.00 0.00 67 1016.1
20260903112701 26 92 4.8 6.4 0.00 0.00 0.00 66 1016.2
20260903112156 26 37 3.2 4.8 0.00 0.00 0.00 66 1015.9
20260903111654 26 165 8.0 11.3 0.00 0.00 0.00 66 1016.0
20260903111150 26 97 3.2 3.2 0.00 0.00 0.00 66 1016.1
20260903110646 27 213 9.7 14.5 0.00 0.00 0.00 65 1016.0
20260903110142 27 160 3.2 3.2 0.00 0.00 0.00 65 1016.0
20260903105636 27 210 6.4 6.4 0.00 0.00 0.00 65 1016.0
20260903105131 26 200 8.0 11.3 0.00 0.00 0.00 65 1015.8
20260903104631 26 122 6.4 11.3 0.00 0.00 0.00 66 1015.8
20260903104126 26 172 6.4 11.3 0.00 0.00 0.00 65 1015.9
20260903103622 26 110 3.2 3.2 0.00 0.00 0.00 65 1015.9
20260903103118 27 195 4.8 6.4 0.00 0.00 0.00 65 1015.8
20260903102613 27 205 6.4 11.3 0.00 0.00 0.00 65 1015.9
20260903102113 27 47 4.8 4.8 0.00 0.00 0.00 65 1015.9
20260903101613 27 134 4.8 6.4 0.00 0.00 0.00 65 1015.7
20260903101108 27 133 3.2 4.8 0.00 0.00 0.00 65 1015.8
20260903100609 27 144 9.7 12.9 0.00 0.00 0.00 64 1015.8
20260903100108 27 174 4.8 4.8 0.00 0.00 0.00 64 1015.6
20260903095605 27 154 4.8 6.4 0.00 0.00 0.00 64 1015.7
20260903095105 27 39 3.2 6.4 0.00 0.00 0.00 64 1015.7
20260903094606 27 231 4.8 4.8 0.00 0.00 0.00 64 1015.7
20260903094101 27 197 9.7 12.9 0.00 0.00 0.00 63 1015.6
20260903093556 27 100 4.8 4.8 0.00 0.00 0.00 63 1015.7
20260903093052 27 192 6.4 9.7 0.00 0.00 0.00 63 1015.6
20260903092551 27 203 6.4 6.4 0.00 0.00 0.00 63 1015.8
20260903092045 27 185 8.0 11.3 0.00 0.00 0.00 62 1015.6
20260903091544 27 30 1.6 1.6 0.00 0.00 0.00 62 1015.7
20260903091038 27 178 3.2 4.8 0.00 0.00 0.00 62 1015.7
20260903090535 27 40 3.2 3.2 0.00 0.00 0.00 61 1015.6
20260903090033 27 171 4.8 4.8 0.00 0.00 0.00 61 1015.6
20260903085532 27 197 6.4 9.7 0.00 0.00 0.00 61 1015.6
20260903085028 28 13 1.6 3.2 0.00 0.00 0.00 60 1015.5
20260903084526 28 28 1.6 1.6 0.00 0.00 0.00 60 1015.6
20260903084020 28 194 3.2 4.8 0.00 0.00 0.00 60 1015.5
20260903083511 28 230 3.2 4.8 0.00 0.00 0.00 60 1015.5
20260903083010 28 181 8.0 11.3 0.00 0.00 0.00 59 1015.6
20260903082505 28 238 3.2 4.8 0.00 0.00 0.00 59 1015.5
20260903082000 28 164 3.2 3.2 0.00 0.00 0.00 59 1015.6
20260903081455 28 202 3.2 4.8 0.00 0.00 0.00 59 1015.5
20260903080951 28 186 9.7 14.5 0.00 0.00 0.00 58 1015.5
20260903080447 28 196 9.7 11.3 0.00 0.00 0.00 58 1015.3
20260903075943 28 1 3.2 6.4 0.00 0.00 0.00 58 1015.3
20260903075438 28 72 3.2 4.8 0.00 0.00 0.00 58 1015.3
20260903074933 28 197 4.8 6.4 0.00 0.00 0.00 57 1015.4
20260903074432 28 31 3.2 3.2 0.00 0.00 0.00 57 1015.4
20260903073927 28 90 6.4 9.7 0.00 0.00 0.00 57 1015.4
20260903073422 28 187 4.8 6.4 0.00 0.00 0.00 57 1015.3
20260903072918 29 49 1.6 1.6 0.00 0.00 0.00 56 1015.3
20260903072414 29 115 6.4 6.4 0.00 0.00 0.00 56 1015.3
20260903071911 29 128 4.8 4.8 0.00 0.00 0.00 56 1015.3
20260903071406 29 191 9.7 11.3 0.00 0.00 0.00 56 1015.3
20260903070902 29 222 3.2 4.8 0.00 0.00 0.00 56 1015.3
20260903070356 29 186 3.2 3.2 0.00 0.00 0.00 56 1015.2
20260903065851 29 221 4.8 4.8 0.00 0.00 0.00 56 1015.3
20260903065345 29 153 4.8 4.8 0.00 0.00 0.00 56 1015.3
20260903064844 29 241 3.2 3.2 0.00 0.00 0.00 56 1015.2
20260903064340 29 156 8.0 11.3 0.00 0.00 0.00 56 1015.2
20260903063836 29 60 3.2 3.2 0.00 0.00 0.00 56 1015.2
20260903063331 29 151 6.4 11.3 0.00 0.00 0.00 56 1015.3
20260903062827 29 164 4.8 9.7 0.00 0.00 0.00 56 1015.2
20260903062326 29 192 4.8 6.4 0.00 0.00 0.00 56 1015.3
20260903061823 29 274 1.6 1.6 0.00 0.00 0.00 56 1015.3
20260903061321 29 139 1.6 3.2 0.00 0.00 0.00 55 1015.2
20260903060818 29 116 4.8 6.4 0.00 0.00 0.00 55 1015.2
20260903060317 30 80 4.8 4.8 0.00 0.00 0.00 55 1015.2
20260903055815 30 101 6.4 9.7 0.00 0.00 0.00 55 1015.1
20260903055313 30 179 4.8 4.8 0.00 0.00 0.00 55 1015.2
20260903054809 29 220 6.4 6.4 0.00 0.00 0.00 55 1015.2
20260903054308 29 185 4.8 6.4 0.00 0.00 0.00 55 1015.2
20260903053805 29 181 4.8 9.7 0.00 0.00 0.00 55 1015.2
20260903053300 29 79 4.8 6.4 0.00 0.00 0.00 55 1015.1
20260903052755 30 34 1.6 3.2 0.00 0.00 0.00 54 1015.2
20260903052251 30 130 6.4 6.4 0.00 0.00 0.00 54 1015.1
20260903051746 30 108 3.2 4.8 0.00 0.00 0.00 53 1015.1
20260903051242 30 157 4.8 6.4 0.00 0.00 0.00 53 1015.1
20260903050737 30 188 9.7 11.3 0.00 0.00 0.00 53 1015.0
20260903050236 30 144 3.2 4.8 0.00 0.00 0.00 53 1015.1
20260903045731 30 24 1.6 3.2 0.00 0.00 0.00 52 1015.0
20260903045227 30 175 6.4 6.4 0.00 0.00 0.00 52 1015.0
20260903044723 30 148 3.2 3.2 0.00 0.00 0.00 52 1015.0
20260903044218 30 35 3.2 4.8 0.00 0.00 0.00 51 1014.9
20260903043716 30 170 6.4 6.4 0.00 0.00 0.00 51 1015.1
20260903043215 30 54 1.6 1.6 0.00 0.00 0.00 50 1015.1
20260903042714 30 178 6.4 9.7 0.00 0.00 0.00 50 1015.0
20260903042209 30 38 4.8 6.4 0.00 0.00 0.00 49 1014.7
20260903041706 30 74 6.4 6.4 0.00 0.00 0.00 49 1014.9
20260903041201 31 188 4.8 6.4 0.00 0.00 0.00 48 1014.9
20260903040700 31 114 4.8 4.8 0.00 0.00 0.00 48 1014.9
20260903040156 31 215 4.8 4.8 0.00 0.00 0.00 48 1014.8
20260903035651 31 48 1.6 1.6 0.00 0.00 0.00 47 1015.1
20260903035142 31 346 3.2 3.2 0.00 0.00 0.00 47 1015.1
20260903034642 31 138 4.8 4.8 0.00 0.00 0.00 46 1014.9
20260903034136 31 158 1.6 1.6 0.00 0.00 0.00 45 1014.9
20260903033632 31 236 1.6 3.2 0.00 0.00 0.00 45 1014.9
20260903033132 32 174 4.8 4.8 0.00 0.00 0.00 44 1014.8
20260903032627 32 158 4.8 4.8 0.00 0.00 0.00 44 1014.8
20260903032123 32 182 3.2 4.8 0.00 0.00 0.00 44 1014.8
20260903031618 32 28 3.2 4.8 0.00 0.00 0.00 44 1014.9
20260903031113 32 117 6.4 6.4 0.00 0.00 0.00 44 1014.8
20260903030609 32 47 4.8 4.8 0.00 0.00 0.00 44 1014.8
20260903030104 32 126 3.2 4.8 0.00 0.00 0.00 44 1014.6
20260903025559 32 66 1.6 3.2 0.00 0.00 0.00 44 1014.7
20260903025055 32 147 4.8 6.4 0.00 0.00 0.00 43 1014.5
20260903024555 32 61 1.6 3.2 0.00 0.00 0.00 43 1014.5
20260903024049 32 54 3.2 3.2 0.00 0.00 0.00 43 1014.6
20260903023544 32 103 6.4 6.4 0.00 0.00 0.00 42 1014.4
20260903023040 32 98 3.2 4.8 0.00 0.00 0.00 42 1014.5
20260903022539 32 43 0.0 0.0 0.00 0.00 0.00 42 1014.6
20260903022038 32 354 0.0 1.6 0.00 0.00 0.00 42 1014.6
20260903021533 33 172 1.6 3.2 0.00 0.00 0.00 42 1014.2
20260903021027 33 157 3.2 3.2 0.00 0.00 0.00 41 1014.4
20260903020524 33 30 0.0 1.6 0.00 0.00 0.00 42 1014.4
20260903020023 33 4 0.0 0.0 0.00 0.00 0.00 41 1014.0
20260903015520 33 15 0.0 0.0 0.00 0.00 0.00 41 1013.9
20260903015015 33 24 1.6 1.6 0.00 0.00 0.00 40 1014.0
20260903014514 33 72 3.2 3.2 0.00 0.00 0.00 40 1013.8
20260903014009 33 34 1.6 1.6 0.00 0.00 0.00 40 1013.8
20260903013508 33 26 0.0 1.6 0.00 0.00 0.00 40 1013.6
20260903013008 33 55 1.6 1.6 0.00 0.00 0.00 40 1013.6
20260903012508 33 21 0.0 0.0 0.00 0.00 0.00 40 1013.6
20260903012006 33 30 0.0 0.0 0.00 0.00 0.00 39 1013.7
20260903011501 33 32 0.0 1.6 0.00 0.00 0.00 39 1013.5
20260903010957 34 23 0.0 0.0 0.00 0.00 0.00 38 1013.4
20260903010457 34 55 0.0 0.0 0.00 0.00 0.00 38 1013.4
20260903005954 34 36 3.2 3.2 0.00 0.00 0.00 38 1013.2
20260903005450 35 62 1.6 3.2 0.00 0.00 0.00 37 1013.5
20260903004946 35 328 1.6 1.6 0.00 0.00 0.00 37 1013.3
20260903004440 35 342 0.0 0.0 0.00 0.00 0.00 36 1013.4
20260903003936 35 9 0.0 0.0 0.00 0.00 0.00 36 1013.6
20260903003436 35 12 1.6 3.2 0.00 0.00 0.00 36 1013.5
20260903002932 35 321 1.6 3.2 0.00 0.00 0.00 35 1013.4
20260903002426 36 191 3.2 3.2 0.00 0.00 0.00 35 1013.3
20260903001921 36 75 3.2 3.2 0.00 0.00 0.00 35 1013.5
20260903001421 36 63 3.2 3.2 0.00 0.00 0.00 34 1013.4
20260903000920 36 214 4.8 6.4 0.00 0.00 0.00 34 1013.4
20260903000417 36 27 3.2 3.2 0.00 0.00 0.00 34 1013.3
20260902235914 36 126 6.4 9.7 0.00 0.00 0.00 33 1013.4
20260902235409 36 224 8.0 11.3 0.00 0.00 0.00 33 1013.5
20260902234909 36 192 3.2 4.8 0.00 0.00 0.00 33 1013.5
20260902234404 36 97 3.2 4.8 0.00 0.00 0.00 33 1013.5
20260902233902 36 185 4.8 6.4 0.00 0.00 0.00 33 1013.5
20260902233357 37 225 4.8 6.4 0.00 0.00 0.00 33 1013.4
20260902232855 37 159 8.0 11.3 0.00 0.00 0.00 33 1013.7
20260902232351 37 210 4.8 6.4 0.00 0.00 0.00 33 1013.7
20260902231850 37 194 6.4 9.7 0.00 0.00 0.00 33 1013.6
20260902231345 37 176 6.4 6.4 0.00 0.00 0.00 32 1013.6
20260902230841 37 271 1.6 3.2 0.00 0.00 0.00 32 1013.4
20260902230340 37 1 1.6 1.6 0.00 0.00 0.00 32 1013.7
20260902225840 37 11 3.2 3.2 0.00 0.00 0.00 33 1013.7
20260902225335 37 98 6.4 11.3 0.00 0.00 0.00 33 1013.8
20260902224833 37 191 6.4 6.4 0.00 0.00 0.00 33 1013.6
20260902224328 37 85 6.4 9.7 0.00 0.00 0.00 32 1013.6
20260902223826 38 96 11.3 14.5 0.00 0.00 0.00 31 1013.7
20260902223326 37 225 3.2 4.8 0.00 0.00 0.00 32 1013.7
20260902222825 38 182 6.4 6.4 0.00 0.00 0.00 32 1014.0
20260902222324 38 117 3.2 4.8 0.00 0.00 0.00 32 1013.9
20260902221818 37 145 8.0 11.3 0.00 0.00 0.00 31 1013.8
20260902221318 37 157 9.7 12.9 0.00 0.00 0.00 32 1014.0
20260902220814 38 88 6.4 9.7 0.00 0.00 0.00 32 1013.9
20260902220313 38 141 8.0 11.3 0.00 0.00 0.00 30 1013.9
20260902215809 38 45 3.2 4.8 0.00 0.00 0.00 30 1013.9
20260902215309 37 7 1.6 1.6 0.00 0.00 0.00 33 1013.9
20260902214805 37 77 6.4 6.4 0.00 0.00 0.00 34 1014.1
20260902214303 37 91 4.8 6.4 0.00 0.00 0.00 33 1014.2
20260902213759 38 65 4.8 4.8 0.00 0.00 0.00 32 1014.1
20260902213254 38 207 11.3 12.9 0.00 0.00 0.00 32 1014.2
20260902212753 37 142 3.2 6.4 0.00 0.00 0.00 32 1014.4
20260902212250 37 153 6.4 6.4 0.00 0.00 0.00 33 1014.6
20260902211746 37 136 4.8 6.4 0.00 0.00 0.00 33 1014.5
20260902211242 38 219 6.4 9.7 0.00 0.00 0.00 32 1014.6
20260902210741 37 185 8.0 9.7 0.00 0.00 0.00 32 1014.6
20260902210236 38 220 8.0 9.7 0.00 0.00 0.00 30 1014.7
20260902205734 38 66 1.6 1.6 0.00 0.00 0.00 31 1014.6
20260902205230 38 158 6.4 11.3 0.00 0.00 0.00 31 1014.8
20260902204725 39 54 4.8 6.4 0.00 0.00 0.00 31 1014.9
20260902204220 39 7 3.2 4.8 0.00 0.00 0.00 31 1014.8
20260902203715 39 326 3.2 4.8 0.00 0.00 0.00 31 1014.8
20260902203215 38 284 3.2 3.2 0.00 0.00 0.00 32 1014.9
20260902202710 38 36 1.6 1.6 0.00 0.00 0.00 32 1014.8
20260902202207 37 155 6.4 6.4 0.00 0.00 0.00 33 1015.1
20260902201703 37 163 6.4 9.7 0.00 0.00 0.00 34 1015.1
20260902201202 37 270 3.2 4.8 0.00 0.00 0.00 34 1015.4
20260902200657 37 156 6.4 9.7 0.00 0.00 0.00 33 1015.3